Location: Asheville, NC
(35.6000°N, 82.5500°W)
Time: 14:19:45
(UTC-04:00)

CUTE 1.7 + AOD 2 - Pass Details

Date: 08 January 2018
Orbit: 595 x 612 km, 97.5° (Epoch: 24 April)

Event Time Altitude Azimuth Distance (km) Brightness Sun altitude
Rises 07:07:04 0° 17° (NNE) 2,856 ? -7.0°
Reaches altitude 10° 07:09:19 10° 23° (NNE) 1,946 ? -6.5°
Maximum altitude 07:13:25 51° 99° (E) 759 ? -5.8°
Drops below altitude 10° 07:17:29 10° 176° (S) 1,924 ? -5.0°
Sets 07:19:41 0° 181° (S) 2,819 ? -4.6°
